Location: Gro�sch�nbrunn
(49.5760°N, 11.8868°E)
Time: 22:49:32
(UTC+00:00)

ATLAS 2AS CENTAUR R/B - Pass Details

Date: 18 September 2020
Orbit: 939 x 1273 km, 63.7° (Epoch: 19 October)

Event Time Altitude Azimuth Distance (km) Brightness Sun altitude
Exits shadow 22:59:05 13° 274° (W) 3,008 5.0 -39.0°
Maximum altitude 23:05:28 37° 336° (NNW) 1,857 4.2 -39.0°
Drops below altitude 10° 23:12:31 10° 42° (NE) 3,168 5.6 -39.0°
Sets 23:15:30 0° 51° (NE) 4,090 6.2 -39.0°
